Meteo pe oră la Abdulnasyrovo

Astăzi, 24 Iulie, Sâmbătă

Timp Temperatura Precipitaţii Vânt Presiune Umiditate
00:00 +20°C° 1.5 mm 1 m/s 715 mmHg 93%
01:00 +18°C° 1.5 mm 0 m/s 715 mmHg 94%
02:00 +19°C° 4.6 mm 1 m/s 715 mmHg 94%
03:00 +18°C° 4.6 mm 2 m/s 715 mmHg 94%
04:00 +18°C° 4.6 mm 3 m/s 715 mmHg 94%
05:00 +18°C° 0 mm 3 m/s 716 mmHg 91%
06:00 +18°C° 0 mm 4 m/s 716 mmHg 89%
07:00 +18°C° 0 mm 4 m/s 717 mmHg 86%
08:00 +19°C° 0 mm 4 m/s 717 mmHg 82%
09:00 +20°C° 0 mm 4 m/s 717 mmHg 78%
10:00 +21°C° 0 mm 4 m/s 718 mmHg 74%
11:00 +21°C° 0.1 mm 4 m/s 718 mmHg 72%
12:00 +21°C° 0.1 mm 3 m/s 718 mmHg 71%
13:00 +21°C° 0.1 mm 3 m/s 719 mmHg 69%
14:00 +23°C° 0.1 mm 2 m/s 719 mmHg 64%
15:00 +24°C° 0.1 mm 2 m/s 719 mmHg 60%
16:00 +25°C° 0.1 mm 1 m/s 719 mmHg 55%
17:00 +24°C° 0 mm 1 m/s 719 mmHg 58%
18:00 +24°C° 0 mm 1 m/s 720 mmHg 60%
19:00 +23°C° 0 mm 1 m/s 720 mmHg 63%
20:00 +22°C° 0 mm 1 m/s 720 mmHg 63%
21:00 +20°C° 0 mm 2 m/s 720 mmHg 63%
22:00 +19°C° 0 mm 2 m/s 721 mmHg 63%
23:00 +18°C° 0 mm 2 m/s 721 mmHg 62%

Mâine, 25 Iulie, Duminică

Timp Temperatura Precipitaţii Vânt Presiune Umiditate
00:00 +18°C° 0 mm 2 m/s 721 mmHg 62%
01:00 +17°C° 0 mm 2 m/s 721 mmHg 61%
02:00 +17°C° 0 mm 2 m/s 721 mmHg 61%
03:00 +16°C° 0 mm 2 m/s 722 mmHg 62%
04:00 +16°C° 0 mm 2 m/s 722 mmHg 63%
05:00 +17°C° 0 mm 2 m/s 722 mmHg 60%
06:00 +19°C° 0 mm 3 m/s 723 mmHg 58%
07:00 +20°C° 0 mm 3 m/s 723 mmHg 55%
08:00 +21°C° 0 mm 4 m/s 723 mmHg 50%
09:00 +23°C° 0 mm 4 m/s 724 mmHg 45%
10:00 +25°C° 0 mm 4 m/s 724 mmHg 39%
11:00 +25°C° 0 mm 4 m/s 724 mmHg 39%
12:00 +25°C° 0 mm 4 m/s 724 mmHg 38%
13:00 +25°C° 0 mm 4 m/s 724 mmHg 37%
14:00 +25°C° 0 mm 4 m/s 725 mmHg 37%
15:00 +25°C° 0 mm 4 m/s 725 mmHg 37%
16:00 +25°C° 0 mm 4 m/s 725 mmHg 37%
17:00 +23°C° 0 mm 4 m/s 725 mmHg 41%
18:00 +22°C° 0 mm 3 m/s 725 mmHg 44%
19:00 +21°C° 0 mm 3 m/s 726 mmHg 47%
20:00 +20°C° 0 mm 3 m/s 726 mmHg 51%
21:00 +18°C° 0 mm 3 m/s 727 mmHg 54%
22:00 +15°C° 0 mm 4 m/s 727 mmHg 58%
23:00 +16°C° 0 mm 3 m/s 727 mmHg 59%

Poimâine, 26 Iulie, Luni

Timp Temperatura Precipitaţii Vânt Presiune Umiditate
00:00 +14°C° 0 mm 3 m/s 728 mmHg 61%
01:00 +13°C° 0 mm 3 m/s 728 mmHg 62%
02:00 +12°C° 0 mm 3 m/s 728 mmHg 64%
03:00 +13°C° 0 mm 2 m/s 728 mmHg 65%
04:00 +12°C° 0 mm 2 m/s 728 mmHg 67%
05:00 +14°C° 0 mm 2 m/s 729 mmHg 62%
06:00 +15°C° 0 mm 2 m/s 729 mmHg 58%
07:00 +16°C° 0 mm 2 m/s 729 mmHg 54%
08:00 +18°C° 0 mm 2 m/s 729 mmHg 48%
09:00 +19°C° 0 mm 2 m/s 729 mmHg 42%
10:00 +20°C° 0 mm 2 m/s 730 mmHg 36%
11:00 +21°C° 0 mm 2 m/s 729 mmHg 34%
12:00 +23°C° 0 mm 1 m/s 729 mmHg 32%
13:00 +24°C° 0 mm 1 m/s 729 mmHg 30%
14:00 +25°C° 0 mm 2 m/s 729 mmHg 29%
15:00 +25°C° 0 mm 2 m/s 729 mmHg 28%
16:00 +25°C° 0 mm 3 m/s 728 mmHg 27%
17:00 +24°C° 0 mm 3 m/s 728 mmHg 31%
18:00 +22°C° 0 mm 4 m/s 728 mmHg 36%
19:00 +20°C° 0 mm 4 m/s 728 mmHg 41%
20:00 +19°C° 0 mm 4 m/s 728 mmHg 44%
21:00 +17°C° 0 mm 3 m/s 729 mmHg 48%
22:00 +14°C° 0 mm 3 m/s 729 mmHg 52%
23:00 +13°C° 0 mm 3 m/s 729 mmHg 55%

27 Iulie, Marţi

Timp Temperatura Precipitaţii Vânt Presiune Umiditate
00:00 +13°C° 0 mm 2 m/s 729 mmHg 59%
01:00 +13°C° 0 mm 2 m/s 729 mmHg 62%
02:00 +12°C° 0 mm 2 m/s 729 mmHg 62%
03:00 +12°C° 0 mm 1 m/s 729 mmHg 62%
04:00 +12°C° 0 mm 1 m/s 729 mmHg 61%
05:00 +13°C° 0 mm 1 m/s 729 mmHg 57%
06:00 +15°C° 0 mm 1 m/s 729 mmHg 53%
07:00 +16°C° 0 mm 1 m/s 729 mmHg 49%
08:00 +19°C° 0 mm 1 m/s 729 mmHg 45%
09:00 +20°C° 0 mm 1 m/s 729 mmHg 41%
10:00 +21°C° 0 mm 2 m/s 729 mmHg 37%
11:00 +23°C° 0 mm 2 m/s 728 mmHg 35%
12:00 +23°C° 0 mm 1 m/s 728 mmHg 34%
13:00 +24°C° 0 mm 1 m/s 728 mmHg 32%
14:00 +24°C° 0 mm 2 m/s 727 mmHg 33%
15:00 +24°C° 0 mm 2 m/s 727 mmHg 34%
16:00 +24°C° 0 mm 2 m/s 727 mmHg 35%
17:00 +23°C° 0 mm 2 m/s 726 mmHg 39%
18:00 +21°C° 0 mm 2 m/s 726 mmHg 42%
19:00 +20°C° 0 mm 2 m/s 726 mmHg 45%
20:00 +19°C° 0 mm 2 m/s 726 mmHg 48%
21:00 +18°C° 0 mm 2 m/s 726 mmHg 50%
22:00 +17°C° 0 mm 2 m/s 725 mmHg 53%
23:00 +16°C° 0 mm 2 m/s 725 mmHg 55%

28 Iulie, Miercuri

Timp Temperatura Precipitaţii Vânt Presiune Umiditate
00:00 +16°C° 0 mm 2 m/s 725 mmHg 57%
01:00 +15°C° 0 mm 2 m/s 725 mmHg 58%
02:00 +15°C° 0 mm 2 m/s 725 mmHg 58%
03:00 +15°C° 0 mm 2 m/s 724 mmHg 57%
04:00 +15°C° 0 mm 2 m/s 724 mmHg 57%
05:00 +16°C° 0 mm 2 m/s 724 mmHg 56%
06:00 +17°C° 0 mm 3 m/s 724 mmHg 54%
07:00 +18°C° 0 mm 3 m/s 724 mmHg 53%
08:00 +20°C° 0 mm 3 m/s 724 mmHg 51%
09:00 +21°C° 0 mm 3 m/s 724 mmHg 48%
10:00 +22°C° 0 mm 3 m/s 724 mmHg 46%
11:00 +22°C° 0.1 mm 3 m/s 724 mmHg 46%
12:00 +22°C° 0.1 mm 3 m/s 724 mmHg 47%
13:00 +22°C° 0.1 mm 4 m/s 724 mmHg 48%
14:00 +22°C° 0 mm 3 m/s 724 mmHg 45%
15:00 +22°C° 0 mm 3 m/s 724 mmHg 43%
16:00 +24°C° 0 mm 3 m/s 724 mmHg 41%
17:00 +22°C° 0 mm 3 m/s 724 mmHg 42%
18:00 +22°C° 0 mm 3 m/s 724 mmHg 43%
19:00 +21°C° 0 mm 3 m/s 724 mmHg 44%
20:00 +19°C° 0 mm 3 m/s 724 mmHg 49%
21:00 +18°C° 0 mm 2 m/s 724 mmHg 54%
22:00 +16°C° 0 mm 2 m/s 725 mmHg 59%
23:00 +15°C° 0 mm 2 m/s 725 mmHg 60%

29 Iulie, Joi

Timp Temperatura Precipitaţii Vânt Presiune Umiditate
00:00 +15°C° 0 mm 1 m/s 724 mmHg 60%
01:00 +15°C° 0 mm 1 m/s 724 mmHg 61%
02:00 +14°C° 0 mm 1 m/s 724 mmHg 60%
03:00 +14°C° 0 mm 2 m/s 724 mmHg 60%
04:00 +14°C° 0 mm 2 m/s 724 mmHg 59%
05:00 +15°C° 0 mm 2 m/s 725 mmHg 55%
06:00 +17°C° 0 mm 3 m/s 725 mmHg 51%
07:00 +18°C° 0 mm 4 m/s 725 mmHg 47%
08:00 +20°C° 0 mm 4 m/s 725 mmHg 43%
09:00 +22°C° 0 mm 5 m/s 725 mmHg 39%
10:00 +25°C° 0 mm 5 m/s 725 mmHg 35%
11:00 +26°C° 0 mm 6 m/s 725 mmHg 35%
12:00 +27°C° 0 mm 6 m/s 724 mmHg 34%
13:00 +28°C° 0 mm 7 m/s 724 mmHg 33%
14:00 +27°C° 0 mm 6 m/s 724 mmHg 35%
15:00 +27°C° 0 mm 6 m/s 724 mmHg 36%
16:00 +27°C° 0 mm 5 m/s 724 mmHg 38%
17:00 +25°C° 0.1 mm 4 m/s 724 mmHg 45%
18:00 +24°C° 0.1 mm 3 m/s 724 mmHg 52%
19:00 +21°C° 0.1 mm 2 m/s 724 mmHg 58%
20:00 +20°C° 0 mm 2 m/s 724 mmHg 60%
21:00 +19°C° 0 mm 2 m/s 724 mmHg 62%
22:00 +18°C° 0 mm 2 m/s 724 mmHg 64%
23:00 +18°C° 0 mm 2 m/s 724 mmHg 64%
Arată mai mult

Formular de consimțământ

Meteoprog și furnizorii noștri de servicii pot stoca și accesa date personale, precum cookies, identificatori de dispozitiv sau alte tehnologii similare pe dispozitivul dumneavoastră și procesa astfel de date pentru a personaliza conținutul și reclamele, dar și pentru a oferi caracteristici de social media și pentru a analiza traficul.

  • Stocarea și/sau accesarea informațiilor pe dispozitivul dumneavoastră

    Cookies, identificatori de dispozitiv sau alte informații pot fi stocate sau accesate pe dispozitiv în scopurile indicate mai sus.

  • Reclame și conținut personalizat, evaluarea reclamelor și a conținutului, informații despre audiențe și dezvoltarea produselor

    Reclamele și conținutul pot fi personalizate pe baza unui profil. Pot fi adăugate date suplimentare pentru a personaliza mai bine reclamele și conținutul. Performanța reclamelor și conținutului poate fi măsurată. Pot fi obținute informații despre utilizatorii care au văzut reclamele și conținutul. Aceste date pot fi utilizate pentru a dezvolta sau îmbunătăți experiența utilizatorilor, sistemele și software-ul.

Dând clic pe ‘Sunt de acord’, permiteți utilizarea cookie-urilor menționate, a identificatorilor de dispozitiv, balizelor web sau altor tehnologii similare. Setările pot fi modificate din browser-ul dispozitivului dumneavoastră.

În anumite scopuri, interesele legitime pot prima asupra consimțământului. Puteți citi mai multe informații în acest sens în Politica privind Confidențialitatea Datelor și Cookie.